Regional Weather Roundup
Issued by NWS

Home | Current Version | Previous Version | Graphics & Text | Print | Product List | Glossary On
Versions: 1 2 3 4 5 6 7 8 9 10 11 12 13 14 15 16 17 18 19 20 21 22 23 24 25 26 27 28 29 30 31 32 33 34 35 36 37 38 39 40 41 42 43 44 45 46 47 48 49 50
000
ASUS45 KBOU 310010
RWRCO

WEATHER ROUNDUP FOR COLORADO
NATIONAL WEATHER SERVICE PUEBLO CO
600 PM MDT THU JUL 30 2015

NOTE: "FAIR" INDICATES FEW OR NO CLOUDS BELOW 12000 FEET WITH NO
SIGNIFICANT WEATHER AND/OR OBSTRUCTIONS TO VISIBILITY.

COZ001>005-013-030-031-310100-
...NORTHWEST COLORADO...

CITY           SKY/WX    TMP DP  RH WIND       PRES   REMARKS
CRAIG          SUNNY     88  17   7 CALM      30.30F
HAYDEN         SUNNY     84  23  10 SW3       30.34F
MEEKER         SUNNY     87  19   8 E3        30.31F
MOUNT WERNER   NOT AVBL
STEAMBOAT SPGS FAIR      84  22  10 SW5       30.36F
WALDEN         FAIR      77  19  11 NW7       30.47F
$$

COZ006>008-011-310100-
...WEST CENTRAL VALLEYS...

CITY           SKY/WX    TMP DP  RH WIND       PRES   REMARKS
GRAND JUNCTION SUNNY     93  23   8 SW10      30.16F
MONTROSE       SUNNY     90  29  11 NW8       30.25F
EAGLE          MOSUNNY   88  27  11 CALM      30.32F
RIFLE          SUNNY     92  25   9 NE3       30.21F
DELTA          NOT AVBL
NUCLA          FAIR      90  28  11 CALM      30.28F
$$

COZ017>023-064>068-310100-
...SOUTHWEST COLORADO...

CITY           SKY/WX    TMP DP  RH WIND       PRES   REMARKS
DURANGO        LGT RAIN  72  52  49 N20       30.38R
CORTEZ         LGT RAIN  74  52  46 NW12      30.28F
PAGOSA SPRINGS FAIR      73  45  37 SW8       30.45S
TELLURIDE      PTSUNNY   74  30  19 CALM      30.53S
WOLF CREEK PAS NOT AVBL
$$

COZ009-010-012-014-032>034-037-058>063-310100-
...CENTRAL COLORADO...

CITY           SKY/WX    TMP DP  RH WIND       PRES   REMARKS
ASPEN          SUNNY     80  27  14 W9        30.41F
BUENA VISTA    PTSUNNY   77  44  30 E15       30.43R
COPPER MTN     MOSUNNY   66  18  15 W20G26    30.78F
BERTHOUD PASS  FAIR      48  37  66 SE15G30   30.85S
COTTONWOOD PAS PTSUNNY   73  36  25 SE13G24   30.59F
GUNNISON       MOSUNNY   82  34  17 SW9       30.40F
KREMMLING      SUNNY     84  -4   3 NW8       30.40F
LEADVILLE      CLOUDY    69  31  24 VRB6G16   30.57F
MONARCH PASS   CLOUDY    55  37  50 E18       30.86S
SALIDA         FAIR      79  44  28 SE12G22   30.46S
NIWOT RIDGE    NOT AVBL
SUNLIGHT       SUNNY     68  27  21 CALM      30.71F
WILKERSON PASS MOSUNNY   61  34  36 SE8       30.76S
$$

COZ069>075-310100-
...SAN LUIS VALLEY/SANGRE DE CRISTO MOUNTAINS...

CITY           SKY/WX    TMP DP  RH WIND       PRES   REMARKS
ALAMOSA        MOSUNNY   73  51  46 SE16      30.41F
LA VETA PASS   CLOUDY    59  45  58 MISG      30.64F
SAGUACHE       PTSUNNY   75  48  38 SE13      30.45R
$$

COZ035-036-038>040-310100-
...NORTHERN COLORADO FRONT RANGE...

CITY           SKY/WX    TMP DP  RH WIND       PRES   REMARKS
DENVER INTL AP MOSUNNY   90  40  17 N10G20    30.26F
DMNS CITY PARK NOT AVBL
AURORA         MOSUNNY   88  42  19 N7        30.28F
FRONT RANGE AP MOSUNNY   88  39  18 MISG      30.27F
ERIE MUNI ARPT FAIR      89  31  12 N8        30.24F
BOULDER MUN AP FAIR      88  37  16 NE6       30.26F
CENTENNIAL     MOSUNNY   88  39  17 VRB7      30.29F
BROOMFIELD     NOT AVBL
LOVELAND       SUNNY     90  43  19 E5        30.22F
LONGMONT       FAIR      91  37  15 NE7       30.26F
$$

COZ041-046-047-076>085-087-088-310100-
...PIKES PEAK/PALMER DIVIDE AND SOUTHERN FOOTHILLS...

CITY           SKY/WX    TMP DP  RH WIND       PRES   REMARKS
COLO. SPRINGS  PTSUNNY   78  53  41 E16       30.35S
A. F. ACADEMY  MOSUNNY   80  48  32 SE8       30.35F
ELLICOTT       FAIR     N/A N/A N/A SE14G21   30.34F
FALCON         FAIR      74  51  44 SE12G20   30.41F HAZE
FORT CARSON    PTSUNNY   79  55  42 E12       30.32S
LIMON          MOSUNNY   81  57  43 SE22G29   30.29S
MONUMENT HILL  SUNNY     75  46  35 S9        30.40F
TRINIDAD       MOSUNNY   77  55  46 E6        30.32R
$$

COZ042>045-048>051-090-091-310100-
...NORTHEAST COLORADO...

CITY           SKY/WX    TMP DP  RH WIND       PRES   REMARKS
GREELEY ARPT   SUNNY     90  45  20 NE9       30.23F
AKRON          MOSUNNY   75  59  57 SE22      30.27R
BURLINGTON     SUNNY     83  57  41 S18       30.23F
WRAY           LGT RAIN  74  61  63 W7G24     30.24R
STERLING       FAIR      82  57  42 SE15      30.20R
HOLYOKE        NOT AVBL
FORT MORGAN    FAIR      86  55  33 E16       30.23S
$$

COZ086-089-092>099-310100-
...SOUTHEAST COLORADO...

CITY           SKY/WX    TMP DP  RH WIND       PRES   REMARKS
PUEBLO         PTSUNNY   89  48  24 E16       30.22R
LA JUNTA       SUNNY     87  53  31 SE20      30.21F
LAMAR          PTSUNNY   82  66  58 S14       30.20F
SPRINGFIELD      N/A     74  65  73 S12       30.27F
$$



USA.gov is the U.S. government's official web portal to all federal, state and local government web resources and services.